When you browse on this site, cookies collect data to enhance your experience and personalize the content and advertising you see.
Visit our Privacy Policy to learn more. By continuing to use the site, you agree to this use of cookies and data.
  • In France
  • List of Countries
  • For 7 days
  • Water Temperature
  • Satellite Maps
  • Weather Map
  • Weather Widgets
  • user-avatar
    Login

    Hourly Weather Manama

    Today, 16 February, Saturday

    Time Temperature Precipitation Wind Pressure Humidity
    00:00 +22°C° 0.1 mm 7 mps 761 mmHg 66%
    01:00 +22°C° 0 mm 7 mps 761 mmHg 66%
    02:00 +22°C° 0 mm 7 mps 760 mmHg 66%
    03:00 +22°C° 0 mm 7 mps 760 mmHg 66%
    04:00 +22°C° 0 mm 7 mps 760 mmHg 67%
    05:00 +22°C° 0 mm 7 mps 760 mmHg 67%
    06:00 +22°C° 0 mm 6 mps 760 mmHg 67%
    07:00 +22°C° 0 mm 6 mps 761 mmHg 64%
    08:00 +23°C° 0 mm 6 mps 761 mmHg 61%
    09:00 +23°C° 0 mm 6 mps 761 mmHg 58%
    10:00 +25°C° 0 mm 5 mps 761 mmHg 52%
    11:00 +26°C° 0 mm 4 mps 761 mmHg 45%
    12:00 +27°C° 0 mm 4 mps 761 mmHg 38%
    13:00 +28°C° 0 mm 3 mps 760 mmHg 35%
    14:00 +29°C° 0 mm 2 mps 760 mmHg 31%
    15:00 +29°C° 0 mm 1 mps 760 mmHg 28%
    16:00 +27°C° 0 mm 4 mps 760 mmHg 41%
    17:00 +24°C° 0 mm 6 mps 761 mmHg 55%
    18:00 +22°C° 0 mm 9 mps 761 mmHg 68%
    19:00 +22°C° 0 mm 9 mps 762 mmHg 71%
    20:00 +21°C° 0 mm 10 mps 763 mmHg 74%
    21:00 +19°C° 0 mm 10 mps 763 mmHg 77%
    22:00 +19°C° 0 mm 10 mps 763 mmHg 73%
    23:00 +19°C° 0 mm 10 mps 763 mmHg 69%

    Tomorrow, 17 February, Sunday

    Time Temperature Precipitation Wind Pressure Humidity
    00:00 +19°C° 0 mm 10 mps 763 mmHg 65%
    01:00 +19°C° 0 mm 10 mps 763 mmHg 62%
    02:00 +19°C° 0 mm 10 mps 763 mmHg 58%
    03:00 +19°C° 0 mm 10 mps 763 mmHg 54%
    04:00 +19°C° 0 mm 10 mps 763 mmHg 55%
    05:00 +19°C° 0 mm 10 mps 763 mmHg 56%
    06:00 +18°C° 0 mm 10 mps 764 mmHg 57%
    07:00 +19°C° 0 mm 10 mps 764 mmHg 54%
    08:00 +19°C° 0 mm 10 mps 764 mmHg 52%
    09:00 +21°C° 0 mm 9 mps 765 mmHg 49%
    10:00 +21°C° 0 mm 9 mps 765 mmHg 46%
    11:00 +21°C° 0 mm 9 mps 764 mmHg 43%
    12:00 +22°C° 0 mm 9 mps 764 mmHg 40%
    13:00 +22°C° 0 mm 9 mps 764 mmHg 40%
    14:00 +21°C° 0 mm 9 mps 763 mmHg 39%
    15:00 +21°C° 0 mm 9 mps 763 mmHg 38%
    16:00 +21°C° 0 mm 9 mps 763 mmHg 40%
    17:00 +19°C° 0 mm 9 mps 763 mmHg 42%
    18:00 +18°C° 0 mm 9 mps 763 mmHg 43%
    19:00 +18°C° 0 mm 9 mps 763 mmHg 45%
    20:00 +18°C° 0 mm 9 mps 763 mmHg 46%
    21:00 +18°C° 0 mm 9 mps 764 mmHg 48%
    22:00 +18°C° 0 mm 9 mps 764 mmHg 47%
    23:00 +18°C° 0 mm 9 mps 764 mmHg 46%

    Day after tomorrow, 18 February, Monday

    Time Temperature Precipitation Wind Pressure Humidity
    00:00 +18°C° 0 mm 9 mps 763 mmHg 45%
    01:00 +18°C° 0 mm 9 mps 763 mmHg 44%
    02:00 +18°C° 0 mm 9 mps 763 mmHg 43%
    03:00 +18°C° 0 mm 9 mps 762 mmHg 43%
    04:00 +18°C° 0 mm 8 mps 762 mmHg 43%
    05:00 +18°C° 0 mm 8 mps 762 mmHg 44%
    06:00 +18°C° 0 mm 8 mps 762 mmHg 44%
    07:00 +20°C° 0 mm 8 mps 763 mmHg 42%
    08:00 +20°C° 0 mm 8 mps 763 mmHg 40%
    09:00 +21°C° 0 mm 7 mps 763 mmHg 37%
    10:00 +22°C° 0 mm 7 mps 763 mmHg 36%
    11:00 +22°C° 0 mm 7 mps 762 mmHg 34%
    12:00 +22°C° 0 mm 7 mps 762 mmHg 32%
    13:00 +22°C° 0 mm 7 mps 761 mmHg 33%
    14:00 +22°C° 0 mm 7 mps 760 mmHg 33%
    15:00 +22°C° 0 mm 7 mps 760 mmHg 33%
    16:00 +21°C° 0 mm 6 mps 760 mmHg 36%
    17:00 +21°C° 0 mm 6 mps 760 mmHg 40%
    18:00 +20°C° 0 mm 6 mps 760 mmHg 43%
    19:00 +20°C° 0 mm 6 mps 760 mmHg 44%
    20:00 +20°C° 0 mm 6 mps 760 mmHg 45%
    21:00 +20°C° 0 mm 6 mps 761 mmHg 46%
    22:00 +19°C° 0 mm 5 mps 760 mmHg 46%
    23:00 +19°C° 0 mm 5 mps 760 mmHg 46%

    19 February, Tuesday

    Time Temperature Precipitation Wind Pressure Humidity
    00:00 +19°C° 0 mm 4 mps 759 mmHg 47%
    01:00 +19°C° 0 mm 4 mps 759 mmHg 48%
    02:00 +18°C° 0 mm 4 mps 758 mmHg 49%
    03:00 +18°C° 0 mm 3 mps 758 mmHg 50%
    04:00 +18°C° 0 mm 3 mps 758 mmHg 50%
    05:00 +18°C° 0 mm 3 mps 758 mmHg 51%
    06:00 +18°C° 0 mm 3 mps 758 mmHg 52%
    07:00 +18°C° 0 mm 2 mps 759 mmHg 49%
    08:00 +19°C° 0 mm 2 mps 759 mmHg 46%
    09:00 +20°C° 0 mm 2 mps 759 mmHg 43%
    10:00 +22°C° 0 mm 1 mps 759 mmHg 42%
    11:00 +22°C° 0 mm 1 mps 759 mmHg 40%
    12:00 +22°C° 0 mm 1 mps 758 mmHg 38%
    13:00 +23°C° 0 mm 1 mps 758 mmHg 37%
    14:00 +23°C° 0 mm 1 mps 758 mmHg 36%
    15:00 +24°C° 0 mm 1 mps 757 mmHg 35%
    16:00 +22°C° 0 mm 4 mps 758 mmHg 42%
    17:00 +21°C° 0 mm 7 mps 758 mmHg 50%
    18:00 +19°C° 0 mm 10 mps 759 mmHg 57%
    19:00 +19°C° 0 mm 10 mps 760 mmHg 56%
    20:00 +19°C° 0 mm 10 mps 760 mmHg 55%
    21:00 +18°C° 0 mm 11 mps 761 mmHg 54%
    22:00 +18°C° 0 mm 11 mps 761 mmHg 52%
    23:00 +18°C° 0 mm 10 mps 761 mmHg 50%

    20 February, Wednesday

    Time Temperature Precipitation Wind Pressure Humidity
    00:00 +18°C° 0 mm 10 mps 762 mmHg 48%
    01:00 +18°C° 0 mm 11 mps 761 mmHg 49%
    02:00 +18°C° 0 mm 11 mps 761 mmHg 49%
    03:00 +18°C° 0 mm 11 mps 761 mmHg 49%
    04:00 +17°C° 0 mm 11 mps 762 mmHg 50%
    05:00 +17°C° 0 mm 11 mps 762 mmHg 50%
    06:00 +17°C° 0 mm 11 mps 762 mmHg 50%
    07:00 +18°C° 0 mm 11 mps 763 mmHg 48%
    08:00 +18°C° 0 mm 11 mps 764 mmHg 45%
    09:00 +19°C° 0 mm 10 mps 764 mmHg 43%
    10:00 +19°C° 0 mm 10 mps 764 mmHg 40%
    11:00 +19°C° 0 mm 10 mps 764 mmHg 38%
    12:00 +21°C° 0 mm 10 mps 764 mmHg 35%
    13:00 +21°C° 0 mm 10 mps 763 mmHg 36%
    14:00 +21°C° 0 mm 10 mps 763 mmHg 36%
    15:00 +21°C° 0 mm 10 mps 763 mmHg 36%
    16:00 +19°C° 0 mm 9 mps 763 mmHg 39%
    17:00 +19°C° 0 mm 9 mps 763 mmHg 41%
    18:00 +18°C° 0 mm 9 mps 764 mmHg 43%
    19:00 +18°C° 0 mm 8 mps 764 mmHg 44%
    20:00 +18°C° 0 mm 8 mps 764 mmHg 45%
    21:00 +18°C° 0 mm 7 mps 765 mmHg 46%
    22:00 +18°C° 0 mm 7 mps 765 mmHg 45%
    23:00 +18°C° 0 mm 7 mps 764 mmHg 45%

    21 February, Thursday

    Time Temperature Precipitation Wind Pressure Humidity
    00:00 +18°C° 0 mm 7 mps 764 mmHg 44%
    01:00 +18°C° 0 mm 7 mps 764 mmHg 44%
    02:00 +17°C° 0 mm 8 mps 764 mmHg 43%
    03:00 +17°C° 0 mm 8 mps 763 mmHg 42%
    04:00 +17°C° 0 mm 8 mps 764 mmHg 42%
    05:00 +17°C° 0 mm 8 mps 764 mmHg 42%
    06:00 +17°C° 0 mm 8 mps 764 mmHg 41%
    07:00 +17°C° 0 mm 7 mps 765 mmHg 39%
    08:00 +18°C° 0 mm 7 mps 765 mmHg 37%
    09:00 +18°C° 0 mm 7 mps 765 mmHg 35%
    10:00 +20°C° 0 mm 7 mps 765 mmHg 33%
    11:00 +21°C° 0 mm 6 mps 765 mmHg 30%
    12:00 +21°C° 0 mm 6 mps 764 mmHg 28%
    13:00 +21°C° 0 mm 6 mps 764 mmHg 27%
    14:00 +22°C° 0 mm 6 mps 764 mmHg 27%
    15:00 +22°C° 0 mm 6 mps 763 mmHg 26%
    16:00 +21°C° 0 mm 6 mps 764 mmHg 32%
    17:00 +21°C° 0 mm 6 mps 764 mmHg 37%
    18:00 +20°C° 0 mm 6 mps 764 mmHg 43%
    19:00 +20°C° 0 mm 6 mps 764 mmHg 44%
    20:00 +20°C° 0 mm 5 mps 765 mmHg 45%
    21:00 +19°C° 0 mm 5 mps 765 mmHg 47%
    22:00 +19°C° 0 mm 5 mps 765 mmHg 46%
    23:00 +19°C° 0 mm 5 mps 765 mmHg 45%
    Show more